Flag for Germany Weather past 2 weeks in Zweibrücken, Rhineland-Palatinate, Germany

Now
63 °F

Light rain. Low clouds.


Feels Like: 63 °F
Forecast: 56 / 87 °F
Wind: 6 mph from Southwest

Location: Saarbruecken / Ensheim

Current Time: Aug 28, 2015 at 4:54:00 AM

Latest Report: Aug 28, 2015 at 4:20 AM


Visibility: 5 mi

Pressure: 29.95 "Hg

Humidity: 94%

Dew point: 61 °F

Location of ZweibrückenLocation

Historic Weather in Zweibrücken — Graph

°F

Zweibrücken temperature yesterday

Maximum temperature yesterday: 84 °F (at 4:20 PM)
Minimum temperature yesterday: 64 °F (at 7:20 AM)
Average temperature yesterday: 72 °F

Past Weeks' High & Low Weather Summary

 TemperatureHumidityPressure
High93 °F (Aug 13, 2:50 PM)100% (Aug 19, 7:20 AM)30.27 "Hg (Aug 19, 7:20 AM)
Low46 °F (Aug 19, 5:50 AM)20% (Aug 13, 5:20 PM)29.68 "Hg (Aug 24, 6:20 AM)
Average65 °F67%29.97 "Hg
* Reported Aug 13 3:20 AM — Aug 28 3:20 AM, Zweibrücken, Weather by CustomWeather, © 2015

Note: Actual official high and low records may vary slightly from our data, if they occured in-between our weather recording intervals... More about our weather records

Advertising

Zweibrücken weather history for previous 24 hours

 ConditionsComfort  
Time TempWeatherWind HumidityBarometerVisibility
3:20 AM
Fri, Aug 28
63 °FClear.7 mph94%29.95 "Hg10 mi
2:50 AM63 °FClear.8 mph94%29.95 "Hg10 mi
2:20 AM63 °FClear.9 mph94%29.95 "Hg10 mi
1:50 AM63 °FMild.10 mph94%29.95 "Hg5 mi
1:20 AM63 °FClear.9 mph94%29.95 "Hg10 mi
12:50 AM63 °FMild.7 mph94%29.95 "Hg4 mi
12:20 AM63 °FMild.6 mph94%29.95 "Hg4 mi
11:50 PM
Thu, Aug 27
64 °FMild.10 mph88%29.95 "Hg2 mi
11:20 PM64 °FClear.13 mph88%29.92 "Hg10 mi
10:50 PM64 °FLight rain. Mostly cloudy.7 mph88%29.92 "HgN/A
10:20 PM66 °FLight rain. Mostly cloudy.8 mph83%29.89 "HgN/A
9:50 PM66 °FLight rain. Mostly cloudy.12 mph83%29.89 "HgN/A
9:20 PM70 °FLight rain. More clouds than sun.8 mph73%29.86 "HgN/A
8:50 PM70 °FLight rain. More clouds than sun.9 mph73%29.86 "HgN/A
8:20 PM72 °FBroken clouds.8 mph65%29.86 "HgN/A
7:50 PM73 °FBroken clouds.2 mph61%29.86 "HgN/A
7:20 PM73 °FLight rain. Partly sunny.9 mph61%29.86 "HgN/A
6:50 PM77 °FPartly sunny.13 mph51%29.83 "HgN/A
6:20 PM81 °FBroken clouds.14 mph37%29.83 "HgN/A
5:50 PM81 °FPartly sunny.14 mph34%29.83 "HgN/A
5:20 PM82 °FPartly sunny.15 mph35%29.83 "HgN/A
4:50 PM82 °FSunny.17 mph32%29.83 "Hg10 mi
4:20 PM84 °FPassing clouds.16 mph33%29.83 "HgN/A
3:50 PM81 °FPassing clouds.13 mph37%29.83 "HgN/A
3:20 PM82 °FSunny.18 mph35%29.86 "Hg10 mi
2:50 PM81 °FPassing clouds.17 mph34%29.86 "HgN/A
2:20 PM81 °FPassing clouds.13 mph39%29.86 "HgN/A
1:50 PM77 °FPartly sunny.8 mph47%29.86 "HgN/A
1:20 PM75 °FBroken clouds.8 mph54%29.89 "HgN/A
12:50 PM75 °FBroken clouds.6 mph54%29.89 "HgN/A
12:20 PM73 °FBroken clouds.6 mph57%29.89 "HgN/A
11:20 AM72 °FPassing clouds.8 mph57%29.92 "HgN/A
10:50 AM70 °FPassing clouds.7 mph64%29.92 "HgN/A
10:20 AM70 °FPassing clouds.8 mph60%29.92 "HgN/A
9:50 AM70 °FSunny.7 mph60%29.92 "Hg10 mi
9:20 AM68 °FSunny.6 mph64%29.92 "Hg10 mi
8:50 AM68 °FPassing clouds.6 mph64%29.92 "HgN/A
8:20 AM66 °FPassing clouds.6 mph68%29.92 "HgN/A
7:50 AM66 °FBroken clouds.5 mph64%29.95 "HgN/A
7:20 AM64 °FPassing clouds.6 mph64%29.92 "HgN/A
6:50 AM66 °FPassing clouds.6 mph60%29.92 "HgN/A
5:50 AM66 °FClear.7 mph60%29.92 "Hg10 mi
5:20 AM66 °FClear.7 mph60%29.92 "Hg10 mi
4:50 AM66 °FClear.8 mph60%29.92 "Hg10 mi
4:20 AM66 °FClear.10 mph60%29.92 "Hg10 mi
Weather by CustomWeather, © 2015

See weather overviewHow to use our weather pages